Ariane 4 3rd Stage Rocket - Orbit

View from above orbital plane
View from above orbital plane
View from above satellite
View from above satellite

Ground track
Ground track

The orbit data is extracted from the following two-line orbital elements,

1 25493U 98056C   12190.23804644  .24958456 -35378-4  20889-2 0  2474
2 25493 007.0066 014.6248 0066753 236.1289 123.3313 16.30364142380835
Epoch (UTC): 08 July 2012 05:42:47
Eccentricity: 0.0066753
inclination: 7.0066°
perigee height: 148 km
apogee height: 235 km
right ascension of ascending node: 14.6248°
argument of perigee: 236.1289°
revolutions per day: 16.30364142
mean anomaly at epoch: 123.3313°
orbit number at epoch: 38083

The dashed part of the orbit path shows where the satellite is in the earth's shadow,  

Developed and maintained by Chris Peat, Heavens-Above GmbH. Please read the updated FAQ before sending e-mail. Imprint. DLR